QPF
0.00 0.00 0.00 0.00 0.00 0.00 0.00 0.00 0.00 0.00 0.00 0.00 0.00 0.00 0.00 0.00 0.00 0.00 0.00 0.00 0.00 0.00 0.00 0.00 0.00 0.00 0.00 0.00 0.00 0.00 0.00 0.00 0.00 0.00 0.00 0.00 0.00 0.00 0.00 0.00 0.00 0.00 0.00 0.00 0.00 0.00 0.00 0.00 0.00
0.00 0.00 0.00 0.00 0.00 0.00 0.00 0.00 0.00 0.00 0.00 0.00 0.00 0.00 0.00 0.00 0.00 0.00 0.00 0.00 0.00 0.00 0.00 0.00 0.00 0.00 0.00 0.00 0.00 0.00 0.00 0.00 0.00 0.00 0.00 0.00 0.00 0.00 0.00 0.00 0.00 0.00 0.00 0.00 0.00 0.00 0.00 0.00 0.00
0.00 0.00 0.00 0.00 0.00 0.00 0.00 0.00 0.00 0.00 0.00 0.00 0.00 0.00 0.00 0.00 0.00 0.00 0.00 0.00 0.00 0.00 0.00 0.00 0.00 0.00 0.00 0.00 0.00 0.00 0.00 0.00 0.00 0.00 0.00 0.00 0.00 0.00 0.00 0.00 0.00 0.00 0.00 0.00 0.00 0.00 0.00 0.00 0.00
0.00 0.00 0.00 0.00 0.00 0.00 0.00 0.00 0.00 0.00 0.00 0.00 0.00 0.00 0.00 0.00 0.00 0.00 0.00 0.00 0.00 0.00 0.00 0.00 0.00 0.00 0.00 0.00 0.00 0.00 0.00 0.00 0.00 0.00 0.00 0.00 0.00 0.00 0.00 0.00 0.00 0.00 0.00 0.00 0.00 0.00 0.00 0.00 0.00
0.00 0.00 0.00 0.00 0.00 0.00 0.00 0.00 0.00 0.00 0.00 0.00 0.00 0.00 0.00 0.00 0.00 0.00 0.00 0.00 0.00 0.00 0.00 0.00 0.00 0.00 0.00 0.00 0.00 0.00 0.00 0.00 0.00 0.00 0.00 0.00 0.00 0.00 0.00 0.00 0.00 0.00 0.00 0.00 0.00 0.00 0.00 0.00 0.00
0.00 0.00 0.00 0.00 0.00 0.00 0.00 0.00 0.00 0.00 0.00 0.00 0.00 0.00 0.00 0.00 0.00 0.00 0.00 0.00 0.00 0.00 0.00 0.00 0.00 0.00 0.00 0.00 0.00 0.00 0.00 0.00 0.00 0.00 0.00 0.00 0.00 0.00 0.00 0.00 0.00 0.00 0.00 0.00 0.00 0.00 0.00 0.00 0.01
0.00 0.00 0.00 0.00 0.00 0.00 0.00 0.00 0.00 0.00 0.00 0.00 0.00 0.00 0.00 0.00 0.00 0.00 0.00 0.00 0.00 0.00 0.00 0.00 0.00 0.00 0.00 0.00 0.00 0.00 0.00 0.00 0.00 0.00 0.00 0.00 0.00 0.00 0.00 0.00 0.00 0.00 0.00 0.01 0.01 0.00 0.00 0.00 0.01
0.00 0.00 0.00 0.00 0.00 0.00 0.00 0.00 0.00 0.00 0.00 0.00 0.00 0.00 0.00 0.00 0.00 0.00 0.00 0.00 0.00 0.00 0.00 0.00 0.00 0.00 0.00 0.00 0.00 0.00 0.00 0.00 0.00 0.00 0.00 0.00 0.00 0.00 0.00 0.00 0.00 0.00 0.01 0.01 0.01 0.01 0.01 0.02 0.01
0.00 0.00 0.00 0.00 0.00 0.00 0.00 0.00 0.00 0.00 0.00 0.00 0.00 0.00 0.00 0.00 0.00 0.00 0.00 0.00 0.00 0.00 0.00 0.00 0.00 0.00 0.00 0.00 0.00 0.00 0.00 0.00 0.00 0.00 0.00 0.00 0.00 0.01 0.01 0.00 0.00 0.00 0.00 0.00 0.01 0.02 0.04 0.05 0.03
0.00 0.00 0.00 0.00 0.00 0.00 0.00 0.00 0.00 0.00 0.00 0.00 0.00 0.00 0.00 0.00 0.00 0.00 0.00 0.00 0.00 0.00 0.00 0.00 0.00 0.00 0.00 0.00 0.00 0.00 0.00 0.01 0.01 0.02 0.02 0.04 0.04 0.03 0.01 0.00 0.00 0.00 0.01 0.01 0.02 0.06 0.08 0.07 0.05
0.00 0.00 0.00 0.00 0.00 0.00 0.00 0.00 0.00 0.00 0.00 0.00 0.00 0.00 0.00 0.00 0.00 0.00 0.00 0.00 0.00 0.00 0.00 0.00 0.00 0.00 0.00 0.00 0.00 0.00 0.00 0.01 0.01 0.02 0.02 0.03 0.03 0.02 0.01 0.01 0.00 0.01 0.01 0.01 0.04 0.11 0.10 0.11 0.11
0.00 0.00 0.00 0.00 0.00 0.00 0.00 0.00 0.00 0.00 0.00 0.00 0.00 0.00 0.00 0.00 0.00 0.00 0.00 0.00 0.00 0.00 0.00 0.00 0.00 0.00 0.00 0.00 0.00 0.00 0.00 0.01 0.01 0.02 0.02 0.03 0.03 0.03 0.03 0.02 0.02 0.03 0.04 0.05 0.07 0.09 0.11 0.12 0.11
0.00 0.00 0.00 0.00 0.00 0.00 0.00 0.00 0.00 0.00 0.00 0.00 0.00 0.00 0.00 0.00 0.00 0.00 0.00 0.00 0.00 0.00 0.01 0.01 0.00 0.00 0.00 0.00 0.00 0.00 0.01 0.01 0.01 0.02 0.02 0.03 0.05 0.07 0.07 0.06 0.07 0.07 0.09 0.11 0.13 0.12 0.14 0.15 0.10
0.00 0.00 0.00 0.00 0.00 0.00 0.00 0.00 0.00 0.00 0.00 0.00 0.00 0.00 0.00 0.00 0.00 0.00 0.00 0.00 0.00 0.00 0.01 0.01 0.01 0.01 0.00 0.01 0.01 0.01 0.02 0.02 0.03 0.05 0.08 0.09 0.11 0.13 0.15 0.13 0.11 0.09 0.12 0.15 0.18 0.19 0.22 0.16 0.13
0.00 0.00 0.00 0.00 0.00 0.00 0.00 0.00 0.00 0.00 0.00 0.00 0.00 0.00 0.00 0.00 0.00 0.00 0.00 0.00 0.00 0.00 0.01 0.02 0.02 0.02 0.01 0.02 0.02 0.02 0.03 0.04 0.06 0.09 0.13 0.17 0.20 0.22 0.21 0.15 0.11 0.12 0.17 0.21 0.18 0.18 0.22 0.14 0.12
0.00 0.00 0.00 0.00 0.00 0.00 0.00 0.00 0.00 0.00 0.00 0.00 0.00 0.00 0.00 0.00 0.00 0.00 0.00 0.00 0.00 0.00 0.01 0.02 0.03 0.03 0.03 0.03 0.04 0.04 0.04 0.05 0.06 0.08 0.12 0.14 0.18 0.19 0.19 0.14 0.09 0.14 0.20 0.20 0.18 0.16 0.18 0.15 0.13
0.00 0.00 0.00 0.00 0.00 0.00 0.00 0.00 0.00 0.00 0.00 0.00 0.00 0.00 0.00 0.00 0.00 0.00 0.00 0.00 0.00 0.00 0.01 0.02 0.03 0.02 0.02 0.03 0.03 0.03 0.03 0.03 0.04 0.05 0.06 0.07 0.09 0.11 0.11 0.08 0.08 0.11 0.15 0.15 0.16 0.21 0.22 0.19 0.18
0.00 0.00 0.00 0.00 0.00 0.00 0.00 0.00 0.00 0.00 0.00 0.00 0.00 0.00 0.00 0.00 0.00 0.00 0.00 0.00 0.00 0.00 0.00 0.01 0.01 0.01 0.01 0.01 0.01 0.01 0.01 0.01 0.01 0.01 0.01 0.02 0.03 0.03 0.04 0.03 0.03 0.06 0.07 0.08 0.10 0.12 0.14 0.13 0.16
0.00 0.00 0.00 0.00 0.00 0.00 0.00 0.00 0.00 0.00 0.00 0.00 0.00 0.00 0.00 0.00 0.00 0.00 0.00 0.00 0.00 0.00 0.01 0.02 0.01 0.01 0.01 0.01 0.01 0.01 0.00 0.00 0.00 0.00 0.00 0.00 0.00 0.00 0.00 0.00 0.01 0.02 0.02 0.03 0.04 0.07 0.08 0.07 0.13
0.00 0.00 0.00 0.00 0.00 0.00 0.00 0.00 0.00 0.00 0.00 0.00 0.00 0.00 0.01 0.01 0.00 0.00 0.00 0.01 0.01 0.02 0.02 0.01 0.01 0.01 0.00 0.00 0.00 0.00 0.00 0.00 0.00 0.00 0.00 0.00 0.00 0.00 0.00 0.00 0.00 0.00 0.00 0.00 0.01 0.02 0.03 0.03 0.07
0.00 0.00 0.00 0.00 0.00 0.00 0.00 0.00 0.00 0.00 0.00 0.00 0.00 0.00 0.01 0.01 0.01 0.01 0.02 0.02 0.02 0.02 0.02 0.01 0.01 0.01 0.01 0.00 0.00 0.00 0.00 0.00 0.00 0.00 0.00 0.00 0.00 0.00 0.00 0.00 0.00 0.00 0.00 0.00 0.00 0.01 0.02 0.02 0.03
0.00 0.00 0.00 0.00 0.00 0.00 0.00 0.00 0.00 0.00 0.00 0.00 0.00 0.01 0.03 0.03 0.03 0.04 0.04 0.04 0.04 0.03 0.02 0.02 0.02 0.02 0.01 0.00 0.01 0.01 0.00 0.00 0.00 0.00 0.00 0.00 0.00 0.00 0.00 0.00 0.00 0.00 0.00 0.00 0.01 0.01 0.02 0.03 0.03
0.00 0.00 0.00 0.00 0.00 0.00 0.00 0.00 0.00 0.00 0.00 0.00 0.01 0.02 0.04 0.06 0.08 0.08 0.06 0.04 0.03 0.03 0.02 0.02 0.02 0.03 0.02 0.01 0.02 0.02 0.00 0.00 0.00 0.00 0.00 0.00 0.00 0.00 0.00 0.00 0.00 0.00 0.00 0.00 0.01 0.01 0.02 0.03 0.04
0.00 0.00 0.00 0.00 0.00 0.00 0.00 0.00 0.00 0.00 0.00 0.00 0.01 0.04 0.06 0.08 0.09 0.08 0.06 0.05 0.03 0.02 0.02 0.02 0.03 0.04 0.03 0.02 0.02 0.02 0.01 0.01 0.00 0.00 0.00 0.00 0.00 0.00 0.00 0.00 0.00 0.00 0.00 0.01 0.01 0.02 0.02 0.03 0.04
0.00 0.00 0.00 0.00 0.00 0.00 0.00 0.00 0.00 0.00 0.00 0.00 0.01 0.03 0.05 0.06 0.06 0.06 0.06 0.05 0.04 0.03 0.03 0.03 0.02 0.02 0.01 0.01 0.01 0.01 0.01 0.01 0.01 0.00 0.00 0.00 0.00 0.00 0.00 0.00 0.00 0.00 0.00 0.01 0.01 0.02 0.02 0.03 0.05
0.00 0.00 0.00 0.00 0.00 0.00 0.00 0.00 0.00 0.00 0.00 0.00 0.01 0.01 0.02 0.03 0.03 0.03 0.02 0.03 0.03 0.03 0.03 0.02 0.02 0.01 0.01 0.00 0.00 0.00 0.00 0.00 0.00 0.00 0.00 0.00 0.00 0.00 0.00 0.00 0.00 0.00 0.00 0.00 0.01 0.02 0.03 0.03 0.04
0.00 0.00 0.00 0.00 0.00 0.00 0.00 0.00 0.00 0.00 0.00 0.00 0.00 0.01 0.01 0.01 0.01 0.01 0.01 0.02 0.02 0.01 0.01 0.01 0.01 0.01 0.00 0.00 0.00 0.00 0.00 0.00 0.00 0.00 0.00 0.00 0.00 0.00 0.00 0.00 0.00 0.00 0.00 0.01 0.02 0.03 0.04 0.05 0.07
0.00 0.00 0.00 0.00 0.00 0.00 0.00 0.00 0.00 0.00 0.00 0.00 0.00 0.01 0.01 0.01 0.01 0.01 0.01 0.01 0.01 0.01 0.00 0.00 0.00 0.00 0.00 0.00 0.00 0.00 0.00 0.00 0.00 0.00 0.00 0.00 0.00 0.00 0.00 0.00 0.00 0.00 0.01 0.01 0.02 0.03 0.04 0.07 0.09
0.00 0.00 0.00 0.00 0.00 0.00 0.00 0.00 0.00 0.00 0.00 0.00 0.01 0.01 0.01 0.01 0.01 0.01 0.01 0.01 0.01 0.00 0.00 0.00 0.00 0.00 0.00 0.00 0.00 0.00 0.00 0.00 0.00 0.00 0.00 0.00 0.00 0.00 0.00 0.00 0.00 0.00 0.01 0.01 0.02 0.03 0.04 0.06 0.09
0.00 0.00 0.00 0.00 0.00 0.00 0.00 0.00 0.00 0.00 0.00 0.00 0.00 0.00 0.00 0.00 0.00 0.00 0.00 0.01 0.01 0.01 0.01 0.01 0.01 0.00 0.00 0.00 0.00 0.00 0.00 0.01 0.01 0.01 0.01 0.01 0.00 0.00 0.00 0.01 0.00 0.00 0.00 0.01 0.02 0.03 0.04 0.06 0.08
MSLP
1009.66 1009.97 1010.34 1010.67 1010.88 1010.94 1010.82 1010.57 1010.26 1009.96 1009.76 1009.67 1009.72 1009.84 1009.99 1010.09 1010.10 1010.03 1009.91 1009.82 1009.85 1010.05 1010.46 1011.05 1011.77 1012.51 1013.17 1013.69 1014.01 1014.16 1014.18 1014.16 1014.18 1014.28 1014.50 1014.81 1015.16 1015.50 1015.78 1015.94 1016.01 1016.00 1015.96 1015.94 1015.97 1016.06 1016.20 1016.37 1016.52
1009.77 1010.14 1010.54 1010.88 1011.08 1011.09 1010.92 1010.61 1010.22 1009.84 1009.55 1009.40 1009.38 1009.46 1009.58 1009.68 1009.72 1009.69 1009.64 1009.62 1009.73 1010.00 1010.48 1011.13 1011.89 1012.66 1013.35 1013.89 1014.22 1014.39 1014.42 1014.40 1014.42 1014.51 1014.71 1014.99 1015.31 1015.61 1015.84 1015.97 1016.01 1015.99 1015.96 1015.97 1016.03 1016.16 1016.34 1016.54 1016.70
1009.84 1010.26 1010.68 1011.02 1011.20 1011.18 1010.97 1010.60 1010.16 1009.73 1009.39 1009.20 1009.15 1009.21 1009.32 1009.43 1009.50 1009.52 1009.52 1009.56 1009.71 1010.03 1010.53 1011.20 1011.97 1012.74 1013.43 1013.97 1014.33 1014.51 1014.58 1014.59 1014.62 1014.72 1014.91 1015.17 1015.45 1015.70 1015.87 1015.96 1015.97 1015.95 1015.93 1015.96 1016.07 1016.25 1016.47 1016.69 1016.85
1009.90 1010.34 1010.76 1011.08 1011.23 1011.17 1010.92 1010.52 1010.05 1009.61 1009.26 1009.06 1009.01 1009.07 1009.20 1009.33 1009.43 1009.48 1009.53 1009.60 1009.78 1010.11 1010.61 1011.25 1011.99 1012.74 1013.41 1013.95 1014.32 1014.53 1014.63 1014.69 1014.76 1014.88 1015.07 1015.30 1015.53 1015.73 1015.85 1015.90 1015.88 1015.85 1015.85 1015.92 1016.07 1016.30 1016.56 1016.79 1016.94
1009.93 1010.36 1010.76 1011.03 1011.14 1011.04 1010.77 1010.35 1009.88 1009.45 1009.12 1008.94 1008.92 1009.01 1009.16 1009.33 1009.46 1009.55 1009.62 1009.72 1009.90 1010.21 1010.68 1011.28 1011.97 1012.67 1013.31 1013.83 1014.20 1014.44 1014.59 1014.68 1014.79 1014.94 1015.13 1015.34 1015.54 1015.69 1015.76 1015.77 1015.73 1015.69 1015.71 1015.81 1016.00 1016.26 1016.55 1016.79 1016.93
1009.98 1010.37 1010.70 1010.91 1010.96 1010.81 1010.50 1010.08 1009.63 1009.23 1008.95 1008.81 1008.84 1008.97 1009.17 1009.38 1009.55 1009.66 1009.76 1009.86 1010.03 1010.32 1010.74 1011.28 1011.91 1012.55 1013.15 1013.64 1014.02 1014.27 1014.45 1014.58 1014.72 1014.88 1015.07 1015.27 1015.43 1015.54 1015.58 1015.55 1015.49 1015.45 1015.48 1015.60 1015.82 1016.10 1016.39 1016.63 1016.76
1010.06 1010.37 1010.61 1010.74 1010.70 1010.49 1010.15 1009.73 1009.30 1008.94 1008.71 1008.64 1008.72 1008.92 1009.17 1009.42 1009.63 1009.78 1009.89 1010.00 1010.16 1010.42 1010.79 1011.28 1011.84 1012.42 1012.97 1013.43 1013.79 1014.05 1014.23 1014.39 1014.54 1014.71 1014.89 1015.06 1015.20 1015.28 1015.28 1015.23 1015.16 1015.12 1015.15 1015.27 1015.49 1015.77 1016.05 1016.28 1016.39
1010.19 1010.41 1010.54 1010.55 1010.42 1010.15 1009.77 1009.33 1008.92 1008.60 1008.43 1008.43 1008.58 1008.84 1009.14 1009.45 1009.70 1009.88 1010.01 1010.13 1010.28 1010.52 1010.85 1011.28 1011.78 1012.30 1012.80 1013.22 1013.55 1013.80 1013.98 1014.13 1014.28 1014.43 1014.60 1014.75 1014.86 1014.91 1014.90 1014.83 1014.75 1014.70 1014.72 1014.83 1015.03 1015.28 1015.54 1015.74 1015.83
1010.38 1010.48 1010.50 1010.40 1010.17 1009.82 1009.40 1008.95 1008.55 1008.27 1008.15 1008.20 1008.41 1008.72 1009.09 1009.43 1009.73 1009.95 1010.11 1010.24 1010.39 1010.61 1010.91 1011.29 1011.75 1012.22 1012.66 1013.04 1013.34 1013.55 1013.71 1013.83 1013.95 1014.08 1014.22 1014.34 1014.43 1014.47 1014.45 1014.38 1014.29 1014.23 1014.23 1014.31 1014.47 1014.67 1014.88 1015.04 1015.10
1010.59 1010.60 1010.51 1010.30 1009.98 1009.57 1009.10 1008.63 1008.24 1007.98 1007.90 1007.99 1008.24 1008.60 1009.00 1009.40 1009.73 1009.98 1010.17 1010.32 1010.47 1010.68 1010.96 1011.32 1011.73 1012.15 1012.55 1012.89 1013.14 1013.31 1013.42 1013.51 1013.59 1013.68 1013.79 1013.89 1013.97 1014.00 1013.98 1013.91 1013.83 1013.76 1013.72 1013.76 1013.86 1014.00 1014.15 1014.26 1014.29
1010.83 1010.75 1010.57 1010.28 1009.89 1009.41 1008.91 1008.42 1008.03 1007.78 1007.71 1007.82 1008.10 1008.48 1008.91 1009.34 1009.69 1009.97 1010.18 1010.35 1010.52 1010.72 1010.99 1011.32 1011.70 1012.09 1012.45 1012.74 1012.96 1013.08 1013.15 1013.19 1013.22 1013.28 1013.35 1013.43 1013.49 1013.53 1013.52 1013.47 1013.39 1013.30 1013.24 1013.23 1013.27 1013.33 1013.41 1013.47 1013.47
1011.04 1010.91 1010.66 1010.32 1009.88 1009.37 1008.84 1008.34 1007.94 1007.69 1007.61 1007.72 1007.99 1008.38 1008.82 1009.24 1009.61 1009.91 1010.14 1010.32 1010.49 1010.70 1010.96 1011.28 1011.64 1012.01 1012.34 1012.60 1012.78 1012.87 1012.89 1012.89 1012.88 1012.89 1012.93 1012.99 1013.06 1013.10 1013.11 1013.08 1013.00 1012.91 1012.82 1012.76 1012.73 1012.72 1012.74 1012.74 1012.71
1011.22 1011.05 1010.78 1010.41 1009.95 1009.43 1008.90 1008.39 1007.98 1007.71 1007.61 1007.70 1007.94 1008.29 1008.71 1009.12 1009.48 1009.78 1010.01 1010.19 1010.37 1010.58 1010.84 1011.16 1011.51 1011.86 1012.18 1012.43 1012.59 1012.66 1012.65 1012.61 1012.57 1012.55 1012.57 1012.62 1012.68 1012.74 1012.76 1012.74 1012.67 1012.57 1012.46 1012.35 1012.26 1012.20 1012.15 1012.11 1012.05
1011.36 1011.18 1010.91 1010.54 1010.09 1009.59 1009.05 1008.55 1008.12 1007.83 1007.69 1007.72 1007.91 1008.21 1008.58 1008.95 1009.28 1009.56 1009.78 1009.97 1010.15 1010.36 1010.62 1010.94 1011.29 1011.66 1011.98 1012.23 1012.39 1012.45 1012.44 1012.39 1012.33 1012.29 1012.28 1012.32 1012.38 1012.44 1012.47 1012.45 1012.39 1012.28 1012.14 1012.00 1011.87 1011.75 1011.66 1011.58 1011.50
1011.48 1011.31 1011.05 1010.71 1010.29 1009.81 1009.30 1008.80 1008.36 1008.03 1007.84 1007.80 1007.91 1008.14 1008.43 1008.75 1009.04 1009.29 1009.49 1009.67 1009.84 1010.06 1010.32 1010.65 1011.02 1011.39 1011.73 1012.01 1012.18 1012.26 1012.27 1012.21 1012.15 1012.09 1012.08 1012.10 1012.15 1012.20 1012.22 1012.20 1012.13 1012.01 1011.85 1011.68 1011.51 1011.36 1011.24 1011.13 1011.03
1011.59 1011.43 1011.20 1010.90 1010.53 1010.09 1009.61 1009.12 1008.66 1008.29 1008.03 1007.92 1007.95 1008.08 1008.30 1008.54 1008.79 1009.00 1009.17 1009.34 1009.51 1009.72 1009.99 1010.33 1010.71 1011.10 1011.47 1011.77 1011.98 1012.10 1012.13 1012.09 1012.03 1011.98 1011.96 1011.96 1011.98 1012.01 1012.01 1011.97 1011.88 1011.74 1011.56 1011.36 1011.17 1011.01 1010.86 1010.73 1010.62
1011.71 1011.57 1011.39 1011.14 1010.82 1010.43 1009.99 1009.51 1009.03 1008.62 1008.30 1008.10 1008.04 1008.09 1008.22 1008.40 1008.58 1008.75 1008.90 1009.05 1009.21 1009.42 1009.69 1010.03 1010.41 1010.83 1011.22 1011.56 1011.81 1011.96 1012.03 1012.02 1011.98 1011.93 1011.90 1011.88 1011.88 1011.87 1011.84 1011.76 1011.64 1011.47 1011.27 1011.06 1010.85 1010.67 1010.51 1010.38 1010.24
1011.86 1011.75 1011.61 1011.42 1011.16 1010.83 1010.42 1009.96 1009.48 1009.03 1008.65 1008.38 1008.22 1008.19 1008.24 1008.35 1008.49 1008.62 1008.75 1008.88 1009.02 1009.22 1009.48 1009.80 1010.19 1010.61 1011.02 1011.38 1011.66 1011.85 1011.95 1011.98 1011.96 1011.92 1011.88 1011.84 1011.81 1011.77 1011.70 1011.59 1011.43 1011.24 1011.02 1010.79 1010.57 1010.38 1010.21 1010.06 1009.91
1012.03 1011.96 1011.87 1011.75 1011.56 1011.29 1010.92 1010.48 1009.99 1009.52 1009.09 1008.76 1008.54 1008.44 1008.43 1008.48 1008.58 1008.68 1008.78 1008.89 1009.01 1009.18 1009.41 1009.71 1010.08 1010.47 1010.87 1011.23 1011.53 1011.75 1011.88 1011.94 1011.94 1011.92 1011.88 1011.83 1011.78 1011.71 1011.60 1011.46 1011.28 1011.06 1010.82 1010.58 1010.35 1010.15 1009.97 1009.80 1009.63
1012.20 1012.18 1012.17 1012.12 1012.01 1011.79 1011.48 1011.06 1010.59 1010.10 1009.65 1009.28 1009.02 1008.86 1008.81 1008.83 1008.89 1008.97 1009.04 1009.12 1009.21 1009.34 1009.52 1009.77 1010.08 1010.43 1010.78 1011.12 1011.41 1011.64 1011.79 1011.87 1011.90 1011.89 1011.86 1011.81 1011.75 1011.66 1011.55 1011.39 1011.19 1010.96 1010.71 1010.46 1010.22 1010.01 1009.81 1009.62 1009.41
1012.36 1012.41 1012.47 1012.51 1012.47 1012.33 1012.07 1011.70 1011.25 1010.77 1010.32 1009.94 1009.65 1009.48 1009.41 1009.40 1009.44 1009.49 1009.54 1009.58 1009.63 1009.70 1009.81 1009.98 1010.21 1010.48 1010.77 1011.05 1011.30 1011.51 1011.65 1011.74 1011.78 1011.80 1011.78 1011.75 1011.70 1011.62 1011.51 1011.35 1011.15 1010.92 1010.67 1010.42 1010.18 1009.95 1009.72 1009.49 1009.24
1012.49 1012.61 1012.76 1012.88 1012.91 1012.85 1012.66 1012.34 1011.94 1011.50 1011.08 1010.71 1010.44 1010.27 1010.19 1010.17 1010.20 1010.23 1010.24 1010.24 1010.23 1010.23 1010.26 1010.33 1010.45 1010.61 1010.80 1011.01 1011.19 1011.35 1011.47 1011.55 1011.60 1011.63 1011.64 1011.63 1011.60 1011.54 1011.45 1011.32 1011.14 1010.92 1010.68 1010.43 1010.17 1009.92 1009.66 1009.39 1009.08
1012.58 1012.78 1013.00 1013.19 1013.31 1013.33 1013.21 1012.97 1012.64 1012.26 1011.89 1011.57 1011.33 1011.18 1011.11 1011.10 1011.11 1011.11 1011.09 1011.04 1010.97 1010.89 1010.82 1010.78 1010.78 1010.83 1010.91 1011.01 1011.11 1011.20 1011.27 1011.33 1011.36 1011.39 1011.41 1011.42 1011.42 1011.39 1011.33 1011.23 1011.08 1010.89 1010.66 1010.41 1010.15 1009.86 1009.56 1009.22 1008.86
1012.62 1012.88 1013.17 1013.43 1013.63 1013.72 1013.69 1013.54 1013.30 1013.01 1012.72 1012.46 1012.28 1012.16 1012.11 1012.10 1012.10 1012.09 1012.03 1011.92 1011.78 1011.61 1011.45 1011.30 1011.20 1011.12 1011.09 1011.08 1011.08 1011.09 1011.09 1011.09 1011.10 1011.10 1011.11 1011.13 1011.14 1011.14 1011.10 1011.03 1010.92 1010.75 1010.54 1010.29 1010.00 1009.68 1009.33 1008.93 1008.50
1012.63 1012.94 1013.27 1013.59 1013.85 1014.02 1014.08 1014.03 1013.89 1013.71 1013.51 1013.34 1013.22 1013.16 1013.14 1013.13 1013.12 1013.07 1012.97 1012.81 1012.60 1012.36 1012.12 1011.89 1011.68 1011.51 1011.36 1011.25 1011.15 1011.07 1010.98 1010.91 1010.85 1010.81 1010.78 1010.77 1010.77 1010.77 1010.75 1010.70 1010.61 1010.46 1010.26 1010.00 1009.69 1009.33 1008.92 1008.47 1007.97
1012.63 1012.95 1013.31 1013.66 1013.98 1014.22 1014.37 1014.42 1014.40 1014.34 1014.25 1014.18 1014.14 1014.12 1014.12 1014.11 1014.08 1014.00 1013.86 1013.65 1013.40 1013.10 1012.80 1012.50 1012.22 1011.97 1011.74 1011.53 1011.34 1011.16 1010.98 1010.82 1010.67 1010.55 1010.45 1010.39 1010.35 1010.32 1010.28 1010.23 1010.14 1009.99 1009.79 1009.53 1009.19 1008.79 1008.34 1007.83 1007.28
1012.62 1012.93 1013.29 1013.67 1014.03 1014.34 1014.57 1014.73 1014.83 1014.88 1014.91 1014.94 1014.96 1014.99 1015.01 1015.00 1014.95 1014.83 1014.65 1014.40 1014.10 1013.78 1013.44 1013.10 1012.78 1012.48 1012.20 1011.92 1011.65 1011.38 1011.10 1010.83 1010.58 1010.36 1010.17 1010.02 1009.90 1009.82 1009.74 1009.66 1009.55 1009.40 1009.19 1008.91 1008.56 1008.13 1007.64 1007.09 1006.51
1012.63 1012.92 1013.27 1013.65 1014.04 1014.40 1014.72 1014.98 1015.19 1015.35 1015.49 1015.60 1015.68 1015.74 1015.77 1015.75 1015.66 1015.51 1015.29 1015.01 1014.69 1014.34 1013.99 1013.65 1013.32 1012.99 1012.68 1012.36 1012.03 1011.68 1011.31 1010.94 1010.58 1010.24 1009.94 1009.68 1009.48 1009.31 1009.17 1009.05 1008.91 1008.74 1008.52 1008.24 1007.88 1007.45 1006.95 1006.39 1005.79
1012.68 1012.93 1013.27 1013.65 1014.06 1014.46 1014.84 1015.19 1015.49 1015.75 1015.97 1016.14 1016.27 1016.34 1016.36 1016.31 1016.19 1015.99 1015.73 1015.42 1015.09 1014.74 1014.39 1014.06 1013.74 1013.42 1013.09 1012.76 1012.38 1011.97 1011.54 1011.08 1010.62 1010.18 1009.77 1009.41 1009.10 1008.85 1008.64 1008.47 1008.30 1008.11 1007.89 1007.62 1007.28 1006.86 1006.38 1005.84 1005.27
1012.78 1013.01 1013.33 1013.71 1014.13 1014.57 1014.99 1015.40 1015.77 1016.09 1016.35 1016.56 1016.70 1016.76 1016.75 1016.66 1016.49 1016.25 1015.95 1015.61 1015.27 1014.92 1014.58 1014.27 1013.96 1013.66 1013.34 1013.00 1012.61 1012.17 1011.68 1011.16 1010.63 1010.10 1009.61 1009.16 1008.78 1008.45 1008.19 1007.97 1007.78 1007.59 1007.38 1007.14 1006.84 1006.47 1006.05 1005.57 1005.05
Thickness
5848 5852 5855 5851 5846 5849 5833 5840 5850 5850 5853 5861 5862 5858 5852 5847 5841 5831 5850 5860 5854 5847 5837 5825 5820 5816 5813 5810 5807 5804 5801 5797 5794 5791 5788 5785 5782 5780 5778 5775 5773 5772 5770 5768 5766 5764 5762 5760 5758
5855 5855 5852 5851 5850 5830 5827 5844 5846 5849 5856 5863 5862 5857 5852 5848 5851 5849 5853 5855 5852 5846 5837 5828 5820 5816 5812 5809 5806 5802 5799 5796 5792 5789 5786 5784 5782 5779 5777 5775 5773 5771 5769 5767 5765 5763 5761 5759 5757
5856 5856 5852 5856 5847 5834 5831 5846 5849 5856 5863 5861 5856 5858 5852 5847 5849 5850 5856 5855 5851 5844 5836 5827 5819 5815 5811 5808 5804 5801 5798 5794 5791 5788 5785 5783 5781 5779 5777 5775 5773 5771 5769 5767 5765 5763 5761 5758 5756
5855 5854 5856 5852 5838 5841 5846 5851 5856 5857 5860 5861 5858 5850 5852 5854 5855 5857 5856 5854 5848 5841 5835 5827 5819 5814 5810 5807 5803 5799 5796 5793 5790 5787 5785 5783 5781 5779 5777 5775 5773 5771 5769 5767 5765 5763 5761 5758 5756
5856 5854 5848 5844 5841 5846 5854 5858 5860 5855 5854 5858 5857 5846 5843 5852 5859 5858 5854 5851 5845 5841 5835 5826 5817 5813 5809 5805 5802 5798 5795 5792 5790 5787 5784 5782 5780 5778 5777 5775 5773 5771 5769 5767 5765 5763 5761 5759 5757
5852 5854 5841 5835 5836 5847 5857 5862 5862 5857 5855 5856 5855 5847 5842 5851 5853 5853 5853 5849 5847 5841 5836 5825 5815 5810 5806 5803 5800 5796 5794 5791 5788 5786 5783 5781 5779 5777 5776 5774 5773 5771 5769 5767 5766 5764 5761 5759 5757
5844 5845 5840 5838 5835 5840 5851 5865 5862 5857 5852 5857 5860 5847 5844 5849 5854 5854 5850 5848 5846 5842 5836 5826 5817 5810 5804 5801 5797 5794 5792 5789 5786 5784 5782 5779 5778 5776 5775 5773 5772 5771 5769 5768 5766 5764 5763 5761 5759
5850 5845 5837 5838 5834 5837 5855 5864 5866 5862 5857 5866 5865 5849 5843 5849 5853 5852 5847 5843 5841 5838 5834 5826 5821 5814 5808 5802 5796 5792 5789 5787 5784 5782 5780 5778 5776 5775 5773 5773 5771 5770 5769 5767 5766 5765 5763 5762 5760
5846 5834 5832 5837 5837 5841 5855 5857 5864 5871 5864 5861 5865 5862 5862 5856 5851 5844 5838 5835 5832 5830 5829 5826 5823 5815 5809 5805 5800 5792 5788 5785 5782 5780 5778 5776 5778 5779 5777 5775 5772 5769 5767 5766 5765 5764 5763 5762 5761
5836 5828 5836 5841 5845 5847 5850 5852 5860 5862 5855 5852 5855 5854 5857 5850 5843 5837 5833 5829 5825 5823 5823 5822 5819 5812 5807 5804 5799 5794 5791 5788 5783 5783 5781 5778 5777 5777 5777 5775 5770 5768 5766 5765 5764 5763 5762 5761 5764
5831 5827 5834 5840 5846 5848 5849 5854 5862 5857 5851 5856 5854 5850 5849 5845 5839 5835 5832 5830 5826 5822 5820 5819 5813 5807 5802 5799 5796 5793 5790 5787 5784 5781 5778 5775 5774 5773 5774 5774 5773 5769 5766 5766 5767 5765 5764 5766 5766
5821 5826 5828 5835 5843 5843 5845 5851 5855 5856 5860 5866 5866 5860 5850 5843 5839 5836 5832 5829 5826 5821 5818 5817 5811 5804 5797 5794 5791 5786 5785 5783 5781 5778 5774 5773 5771 5770 5770 5769 5770 5769 5768 5767 5765 5764 5765 5764 5763
5813 5819 5826 5833 5837 5840 5841 5844 5846 5853 5862 5864 5861 5854 5847 5844 5841 5838 5835 5829 5823 5816 5814 5812 5806 5800 5793 5786 5783 5781 5779 5779 5777 5772 5770 5767 5766 5766 5766 5765 5764 5763 5763 5762 5760 5760 5760 5759 5759
5811 5814 5821 5827 5831 5834 5832 5839 5841 5848 5856 5853 5851 5848 5847 5844 5841 5835 5828 5822 5818 5814 5811 5808 5800 5795 5788 5783 5778 5776 5774 5771 5770 5768 5766 5763 5761 5760 5759 5759 5759 5759 5758 5757 5756 5756 5754 5754 5754
5809 5806 5815 5822 5825 5829 5828 5824 5831 5842 5847 5843 5843 5843 5842 5839 5836 5830 5826 5820 5818 5813 5809 5803 5797 5793 5786 5781 5776 5774 5772 5769 5766 5763 5760 5757 5756 5754 5753 5754 5755 5755 5754 5753 5751 5751 5749 5749 5750
5802 5799 5798 5811 5818 5822 5817 5812 5827 5837 5837 5833 5835 5834 5831 5828 5829 5826 5824 5819 5816 5812 5804 5798 5795 5790 5783 5776 5771 5770 5768 5765 5761 5759 5757 5754 5751 5750 5748 5749 5751 5750 5748 5748 5747 5746 5744 5745 5744
5788 5787 5791 5797 5810 5814 5812 5808 5816 5829 5829 5825 5825 5825 5823 5819 5819 5820 5818 5815 5811 5806 5799 5793 5789 5784 5778 5772 5767 5764 5761 5758 5756 5755 5753 5750 5746 5745 5744 5745 5746 5744 5744 5744 5743 5743 5739 5738 5738
5775 5781 5780 5784 5796 5803 5800 5800 5808 5817 5818 5817 5817 5817 5814 5811 5812 5813 5812 5811 5805 5800 5793 5786 5781 5776 5771 5767 5762 5759 5756 5755 5753 5751 5747 5743 5741 5740 5738 5740 5740 5739 5739 5739 5738 5735 5734 5733 5733
5774 5773 5772 5777 5790 5791 5787 5790 5797 5805 5807 5806 5807 5807 5805 5805 5808 5807 5805 5802 5798 5791 5785 5778 5774 5769 5764 5759 5755 5751 5750 5749 5748 5746 5742 5738 5736 5735 5732 5733 5733 5731 5732 5731 5730 5730 5729 5729 5730
5770 5766 5768 5773 5782 5780 5777 5782 5792 5794 5795 5797 5798 5798 5796 5796 5796 5795 5793 5791 5786 5780 5774 5769 5765 5762 5757 5753 5749 5746 5744 5744 5743 5740 5736 5733 5731 5729 5730 5727 5725 5726 5723 5721 5721 5720 5720 5724 5725
5764 5763 5762 5761 5770 5776 5769 5772 5781 5785 5788 5789 5790 5791 5790 5788 5786 5784 5782 5778 5773 5767 5764 5761 5756 5753 5750 5747 5745 5740 5737 5736 5737 5735 5732 5730 5726 5724 5722 5720 5718 5717 5715 5716 5714 5712 5711 5713 5718
5757 5765 5761 5757 5754 5761 5761 5751 5772 5773 5773 5774 5776 5778 5778 5778 5778 5773 5768 5762 5758 5757 5757 5752 5746 5744 5742 5739 5737 5735 5731 5730 5730 5727 5727 5724 5722 5719 5717 5714 5712 5710 5710 5708 5707 5708 5705 5703 5707
5760 5764 5760 5756 5751 5749 5756 5748 5763 5762 5753 5758 5762 5763 5765 5764 5761 5756 5753 5750 5749 5749 5746 5743 5740 5737 5735 5732 5731 5727 5727 5728 5727 5724 5721 5718 5719 5715 5713 5710 5707 5705 5704 5702 5699 5697 5696 5696 5698
5763 5757 5755 5755 5752 5736 5745 5739 5744 5740 5733 5741 5746 5746 5746 5747 5746 5742 5740 5738 5736 5737 5736 5735 5732 5729 5728 5727 5725 5722 5721 5719 5717 5715 5715 5714 5715 5712 5710 5706 5702 5700 5699 5697 5694 5692 5691 5690 5691
5758 5744 5732 5733 5737 5738 5746 5737 5729 5725 5726 5727 5728 5728 5729 5730 5728 5726 5724 5722 5721 5721 5722 5723 5722 5720 5720 5720 5718 5717 5714 5712 5710 5709 5710 5708 5709 5708 5705 5702 5697 5696 5694 5692 5690 5688 5688 5687 5686
5752 5744 5723 5713 5722 5737 5745 5735 5725 5722 5720 5720 5719 5717 5716 5715 5714 5711 5709 5708 5707 5707 5706 5707 5707 5707 5708 5709 5709 5709 5707 5707 5708 5706 5704 5704 5703 5702 5699 5695 5692 5691 5690 5689 5687 5686 5685 5685 5684
5746 5747 5753 5735 5732 5726 5737 5736 5716 5718 5712 5709 5707 5705 5703 5702 5701 5699 5698 5696 5695 5693 5692 5691 5691 5691 5693 5695 5696 5697 5697 5697 5698 5697 5696 5698 5697 5695 5693 5690 5688 5687 5686 5685 5683 5684 5683 5682 5682
5750 5748 5739 5730 5713 5712 5728 5732 5730 5710 5701 5698 5694 5692 5690 5690 5689 5686 5684 5682 5681 5680 5678 5677 5676 5676 5676 5678 5679 5683 5684 5686 5687 5688 5689 5689 5689 5687 5685 5684 5683 5682 5682 5681 5680 5680 5681 5680 5680
5742 5739 5734 5734 5726 5708 5709 5723 5711 5700 5691 5689 5686 5682 5679 5677 5675 5673 5670 5668 5666 5665 5664 5662 5662 5661 5661 5662 5663 5665 5668 5672 5675 5677 5680 5681 5681 5681 5679 5678 5678 5677 5677 5676 5674 5674 5675 5675 5676
5745 5738 5731 5714 5713 5717 5709 5710 5699 5691 5686 5679 5674 5672 5669 5666 5664 5661 5658 5654 5651 5649 5648 5646 5646 5645 5645 5646 5646 5648 5651 5656 5659 5664 5667 5671 5672 5673 5673 5673 5672 5672 5672 5670 5669 5668 5669 5668 5668